This demonstration page uses our WeatherBlox Daily Observations layout. Learn more.

Left ArrowRight Arrow

44.31136, -96.79839

Hourly Observations for August 12, 2017

Temp ( °F °C ) Dew Point ( °F °C ) Humidity (%) Winds ( mph kmh ) Pressure ( in mb ) Visibility ( mi km ) Precip ( " mm )
12:56 am 00:56 Clear 61 16.1 57 13.9 87 87 SE 7 11 30.15 1021 N/A 0.00 0.00
1:56 am 01:56 Mostly Cloudy 59 15 56 13.3 90 90 E 3 6 30.16 1021 N/A 0.00 0.00
2:56 am 02:56 Clear 60 15.6 57 13.9 90 90 Calm 30.15 1021 N/A 0.00 0.00
3:56 am 03:56 Clear 59 15 55 12.8 87 87 Calm 30.15 1021 N/A 0.00 0.00
4:56 am 04:56 Clear 58 14.4 55 12.8 90 90 ESE 5 7 30.14 1021 N/A 0.00 0.00
5:56 am 05:56 Partly Cloudy 58 14.4 55 12.8 90 90 SE 5 7 30.15 1021 N/A 0.00 0.00
6:56 am 06:56 Sunny 58 14.4 55 12.8 90 90 SE 7 11 30.16 1021 N/A 0.00 0.00
7:56 am 07:56 Sunny 62 16.7 56 13.3 80 80 SE 6 9 30.17 1022 N/A 0.00 0.00
8:56 am 08:56 Sunny 66 18.9 57 13.9 73 73 SE 12 19 30.17 1022 N/A 0.00 0.00
9:56 am 09:56 Sunny 67 19.4 58 14.4 73 73 SE 8 13 30.16 1022 N/A 0.00 0.00
10:56 am 10:56 Mostly Sunny 67 19.4 59 15 76 76 SSE 10 17 30.16 1022 N/A 0.00 0.00
11:56 am 11:56 Mostly Sunny 70 21.1 60 15.6 71 71 SSE 12 19 30.16 1021 N/A 0.00 0.00
12:56 pm 12:56 Mostly Sunny 70 21.1 61 16.1 73 73 SSE 8 13 30.14 1021 N/A 0.00 0.00
1:44 pm 13:44 Mostly Cloudy 72 22 61 16 69 69 SSE 13 20 30.06 1018 N/A 0.00 0.00
1:56 pm 13:56 Mostly Cloudy 73 22.8 60 15.6 64 64 S 12 19 30.13 1020 N/A 0.00 0.00
2:56 pm 14:56 Mostly Cloudy 72 22.2 61 16.1 68 68 S 12 19 30.12 1020 N/A 0.00 0.00
3:56 pm 15:56 Mostly Sunny 73 22.8 62 16.7 69 69 SE 13 20 30.09 1019 N/A 0.00 0.00
4:56 pm 16:56 Mostly Sunny 74 23.3 61 16.1 64 64 SSE 14 22 30.06 1018 N/A 0.00 0.00
5:56 pm 17:56 Sunny 73 22.8 62 16.7 69 69 SSE 13 20 30.05 1018 N/A 0.00 0.00
6:56 pm 18:56 Sunny 72 22.2 62 16.7 71 71 SSE 13 20 30.02 1017 N/A 0.00 0.00
7:56 pm 19:56 Cloudy 70 21.1 61 16.1 73 73 SE 10 17 30.02 1017 N/A 0.00 0.00
8:56 pm 20:56 Cloudy 69 20.6 61 16.1 76 76 SE 14 22 30.01 1016 N/A 0.00 0.00
9:56 pm 21:56 Cloudy 68 20 60 15.6 76 76 SE 9 15 30.00 1016 N/A 0.00 0.00
10:56 pm 22:56 Cloudy 67 19.4 59 15 76 76 SE 10 17 30.01 1016 N/A 0.00 0.00
11:56 pm 23:56 Cloudy 67 19.4 59 15 76 76 SE 13 20 30.01 1016 N/A 0.00 0.00

Powered by AerisWeather